GW3133 Weather Reports


time (UTC)temp
F
wind
direction
speed
knots
gust
knots
rain 1hr
in
rain 24hr
in
rain mn
in
humidity
%
barometer
mb
20260505164920 76 240 7.8 17.4 0.00 0.00 0.00 56 1013.6
20260505164020 75 236 9.6 18.2 0.00 0.00 0.00 56 1013.8
20260505163120 75 248 7.0 15.6 0.00 0.00 0.00 56 1013.8
20260505162220 75 244 6.1 15.6 0.00 0.00 0.00 59 1013.8
20260505161321 74 236 6.1 14.8 0.00 0.00 0.00 59 1014.0
20260505160420 74 236 6.1 15.6 0.00 0.00 0.00 60 1014.0
20260505152820 72 237 5.2 14.8 0.00 0.00 0.00 62 1014.0
20260505123720 67 271 3.5 7.0 0.00 0.00 0.00 66 1013.8
20260505122820 66 270 4.3 7.0 0.00 0.00 0.00 67 1013.9
20260505121920 66 274 4.3 8.7 0.00 0.00 0.00 67 1014.0
20260505121020 66 271 3.5 7.0 0.00 0.00 0.00 68 1013.8
20260505120120 65 269 3.5 8.7 0.00 0.00 0.00 69 1013.7
20260505114321 65 270 3.5 7.0 0.00 0.00 0.00 69 1013.5
20260505112520 65 269 3.5 7.8 0.00 0.00 0.00 69 1013.4
20260505111620 64 264 4.3 8.7 0.00 0.00 0.00 69 1013.4
20260505110720 64 266 4.3 7.8 0.00 0.00 0.00 69 1013.3
20260505095520 64 264 3.5 8.7 0.00 0.00 0.00 69 1013.1
20260505094620 64 260 3.5 10.4 0.00 0.00 0.00 69 1012.9
20260505093720 64 262 4.3 9.6 0.00 0.00 0.00 69 1012.9
20260505092820 64 265 3.5 7.8 0.00 0.00 0.00 70 1012.9
20260505091920 63 266 3.5 7.8 0.00 0.00 0.00 71 1012.9
20260505091020 63 259 3.5 9.6 0.00 0.00 0.00 71 1012.8
20260505090120 63 258 3.5 8.7 0.00 0.00 0.00 72 1012.7
20260505085220 63 256 3.5 8.7 0.00 0.00 0.00 72 1012.7
20260505084320 64 265 3.5 7.8 0.00 0.00 0.00 71 1012.8
20260505083420 64 263 3.5 9.6 0.00 0.00 0.00 71 1012.7
20260505082520 64 262 3.5 7.8 0.00 0.00 0.00 71 1012.7
20260505080720 64 264 4.3 9.6 0.00 0.00 0.00 71 1012.7
20260505075820 64 265 4.3 11.3 0.00 0.00 0.00 70 1012.6
20260505074921 64 263 4.3 13.0 0.00 0.00 0.00 70 1012.7
20260505073120 64 264 4.3 11.3 0.00 0.00 0.00 70 1012.6
20260505072220 64 263 5.2 11.3 0.00 0.00 0.00 70 1012.5
20260505071320 64 262 5.2 10.4 0.00 0.00 0.00 72 1012.6
20260505070420 64 259 5.2 15.6 0.00 0.00 0.00 71 1012.7
20260505065520 64 256 7.0 14.8 0.00 0.00 0.00 71 1012.6
20260505064620 65 254 7.0 14.8 0.00 0.00 0.00 69 1012.7
20260505062820 65 248 7.0 15.6 0.00 0.00 0.00 69 1012.6
20260505061920 65 248 8.7 16.5 0.00 0.00 0.00 69 1012.5
20260505061019 65 246 7.8 16.5 0.00 0.00 0.00 69 1012.4
20260505060119 65 248 7.0 14.8 0.00 0.00 0.00 69 1012.5
20260505055220 65 249 7.8 14.8 0.00 0.00 0.00 70 1012.5
20260505053420 64 245 7.8 19.1 0.00 0.00 0.00 73 1012.5
20260505051619 64 245 6.1 13.9 0.00 0.00 0.00 74 1012.6
20260505050719 65 239 6.1 11.3 0.00 0.00 0.00 73 1012.5
20260505041319 65 237 6.1 11.3 0.00 0.00 0.00 70 1012.5
20260505035520 65 238 6.1 11.3 0.00 0.00 0.00 71 1012.4
20260505034619 65 230 6.1 11.3 0.00 0.00 0.00 71 1012.4
20260505033719 66 239 6.1 11.3 0.00 0.00 0.00 71 1012.4
20260505032819 66 238 7.0 13.0 0.00 0.00 0.00 70 1012.4
20260505031919 66 238 7.0 13.0 0.00 0.00 0.00 69 1012.3
20260505031019 66 235 7.0 13.0 0.00 0.00 0.00 69 1012.5
20260505030119 66 236 7.0 14.8 0.00 0.00 0.00 69 1012.4
20260505025219 65 235 6.1 11.3 0.00 0.00 0.00 71 1012.3
20260505022519 66 220 6.1 13.0 0.00 0.00 0.00 72 1012.3
20260505021619 66 220 6.1 12.2 0.00 0.00 0.00 72 1012.3
20260505020719 66 229 6.1 12.2 0.00 0.00 0.00 72 1012.5
20260505015819 66 235 7.0 14.8 0.00 0.00 0.00 70 1012.5
20260505014919 66 233 7.0 14.8 0.00 0.00 0.00 68 1012.5
20260505014019 66 231 7.0 13.0 0.00 0.00 0.00 67 1012.4
20260505013119 67 230 7.0 13.9 0.00 0.00 0.00 64 1012.4
20260505012219 67 229 7.0 16.5 0.00 0.00 0.00 61 1012.3
20260505011319 67 215 5.2 15.6 0.00 0.00 0.00 60 1012.1
20260505010419 67 224 3.5 10.4 0.00 0.00 0.00 59 1012.1
20260505005519 67 235 3.5 7.0 0.00 0.00 0.00 60 1012.0
20260505004619 68 238 4.3 11.3 0.00 0.00 0.00 60 1011.8
20260505003719 68 236 3.5 7.8 0.00 0.00 0.00 60 1011.7
20260505002819 68 242 4.3 8.7 0.00 0.00 0.00 60 1011.9
20260505001919 68 240 3.5 7.8 0.00 0.00 0.00 60 1011.9
20260505001018 68 244 5.2 9.6 0.00 0.00 0.00 59 1011.9
20260505000119 69 239 5.2 12.2 0.00 0.00 0.00 59 1011.9
20260504235219 69 231 5.2 12.2 0.00 0.00 0.00 57 1011.8
20260504234318 70 234 5.2 11.3 0.00 0.00 0.00 56 1011.7
20260504233419 70 233 5.2 11.3 0.00 0.00 0.00 55 1011.8
20260504232519 70 242 6.1 11.3 0.00 0.00 0.00 53 1011.7
20260504230719 71 235 6.1 13.0 0.00 0.00 0.00 51 1011.7
20260504225819 71 241 6.1 13.0 0.00 0.00 0.00 50 1011.8
20260504224919 71 234 7.0 20.0 0.00 0.00 0.00 48 1011.6
20260504222218 72 230 7.0 12.2 0.00 0.00 0.00 47 1011.6
20260504221318 73 219 7.0 17.4 0.00 0.00 0.00 45 1011.6
20260504220418 73 218 7.0 16.5 0.00 0.00 0.00 47 1011.6
20260504214618 73 220 7.0 17.4 0.00 0.00 0.00 46 1011.6
20260504213718 73 227 8.7 16.5 0.00 0.00 0.00 45 1011.7
20260504212818 73 212 8.7 16.5 0.00 0.00 0.00 45 1011.7
20260504211018 74 215 6.1 14.8 0.00 0.00 0.00 42 1011.8
20260504210118 74 224 7.0 14.8 0.00 0.00 0.00 42 1011.8
20260504205218 74 246 6.1 14.8 0.00 0.00 0.00 40 1011.8
20260504204318 74 205 6.1 11.3 0.00 0.00 0.00 43 1011.9
20260504203418 74 231 6.1 12.2 0.00 0.00 0.00 43 1011.9
20260504202518 74 254 5.2 12.2 0.00 0.00 0.00 41 1012.0
20260504200718 74 239 6.1 13.0 0.00 0.00 0.00 41 1012.2
20260504195818 73 234 8.7 17.4 0.00 0.00 0.00 40 1012.3
20260504194918 73 232 6.1 17.4 0.00 0.00 0.00 41 1012.4
20260504194018 74 242 5.2 13.0 0.00 0.00 0.00 41 1012.5
20260504193118 73 242 6.1 13.9 0.00 0.00 0.00 40 1012.8
20260504191318 73 248 4.3 13.0 0.00 0.00 0.00 39 1013.0
20260504190418 73 249 4.3 10.4 0.00 0.00 0.00 38 1013.1
20260504184618 72 239 5.2 12.2 0.00 0.00 0.00 40 1013.3
20260504183718 72 240 4.3 10.4 0.00 0.00 0.00 41 1013.4
20260504181918 71 225 5.2 12.2 0.00 0.00 0.00 42 1013.6
20260504181018 71 207 5.2 12.2 0.00 0.00 0.00 41 1013.8
20260504180118 71 224 6.1 10.4 0.00 0.00 0.00 40 1013.9
20260504175218 71 240 4.3 10.4 0.00 0.00 0.00 42 1014.1
20260504174318 71 224 3.5 10.4 0.00 0.00 0.00 41 1014.2
20260504173418 71 219 5.2 13.0 0.00 0.00 0.00 42 1014.2
20260504172518 71 233 4.3 11.3 0.00 0.00 0.00 43 1014.2
20260504171618 71 241 2.6 8.7 0.00 0.00 0.00 42 1014.3
20260504170718 70 256 3.5 7.8 0.00 0.00 0.00 41 1014.4